FW9568 Weather Reports


Display with metric or nautical units.
time (UTC)temp
F
wind
direction
speed
MPH
gust
MPH
rain 1hr
in
rain 24hr
in
rain mn
in
humidity
%
barometer
mb
20260504081803 54 296 1.0 2.0 0.00 0.00 0.00 40 1012.1
20260504080903 54 297 1.0 3.0 0.00 0.00 0.00 38 1012.1
20260504050003 57 295 1.0 3.0 0.00 0.00 0.00 35 1013.4
20260504045403 58 294 1.0 3.0 0.00 0.00 0.00 34 1013.5
20260504044504 58 306 1.0 4.0 0.00 0.00 0.00 34 1013.5
20260504043605 58 298 1.0 4.0 0.00 0.00 0.00 34 1013.5
20260504042703 59 298 2.0 6.0 0.00 0.00 0.00 34 1013.6
20260504041803 59 293 1.0 3.0 0.00 0.00 0.00 34 1013.8
20260504040903 59 0 0.0 0.0 0.00 0.00 0.00 34 1013.7
20260504040003 60 0 0.0 0.0 0.00 0.00 0.00 32 1013.8
20260504035403 60 0 0.0 0.0 0.00 0.00 0.00 32 1013.6
20260504034503 61 311 0.0 1.0 0.00 0.00 0.00 31 1013.6
20260504033603 61 316 0.0 2.0 0.00 0.00 0.00 30 1013.7
20260504032703 62 28 0.0 3.0 0.00 0.00 0.00 29 1013.6
20260504031803 62 332 1.0 3.0 0.00 0.00 0.00 28 1013.5
20260504030903 62 293 1.0 4.0 0.00 0.00 0.00 29 1013.6
20260504030003 62 300 0.0 1.0 0.00 0.00 0.00 29 1013.2
20260504025403 63 300 0.0 1.0 0.00 0.00 0.00 28 1013.2
20260504024503 64 0 0.0 0.0 0.00 0.00 0.00 27 1012.9
20260504023603 64 300 0.0 1.0 0.00 0.00 0.00 26 1012.8
20260504022703 65 300 0.0 2.0 0.00 0.00 0.00 24 1012.8
20260504022016 65 312 1.0 4.0 0.00 0.00 0.00 24 1012.7
20260504020903 65 299 2.0 6.0 0.00 0.00 0.00 24 1012.7
20260504020003 66 359 1.0 2.0 0.00 0.00 0.00 25 1012.8
20260504015403 66 65 1.0 3.0 0.00 0.00 0.00 25 1012.8
20260504014503 66 65 1.0 4.0 0.00 0.00 0.00 23 1012.7
20260504013817 67 33 1.0 4.0 0.00 0.00 0.00 24 1012.4
20260504012703 67 284 0.0 4.0 0.00 0.00 0.00 23 1012.6
20260504012019 68 0 0.0 0.0 0.00 0.00 0.00 22 1012.4
20260504010903 68 0 0.0 0.0 0.00 0.00 0.00 21 1012.2
20260504010003 69 0 0.0 0.0 0.00 0.00 0.00 21 1012.2
20260504005403 69 0 0.0 0.0 0.00 0.00 0.00 20 1012.2
20260504004503 69 63 0.0 2.0 0.00 0.00 0.00 20 1012.1
20260504003603 70 64 2.0 7.0 0.00 0.00 0.00 19 1012.2
20260504002703 70 186 0.0 2.0 0.00 0.00 0.00 19 1012.3
20260504001803 71 142 0.0 1.0 0.00 0.00 0.00 20 1012.3
20260504000903 71 149 0.0 1.0 0.00 0.00 0.00 18 1012.4
20260504000219 71 168 0.0 1.0 0.00 0.00 0.00 20 1012.4
20260503235403 71 124 0.0 2.0 0.00 0.00 0.00 18 1012.4
20260503234503 71 167 1.0 2.0 0.00 0.00 0.00 19 1012.5
20260503233603 72 251 2.0 4.0 0.00 0.00 0.00 20 1012.4
20260503232703 72 197 1.0 3.0 0.00 0.00 0.00 20 1012.5
20260503231803 72 195 0.0 2.0 0.00 0.00 0.00 20 1012.6
20260503230903 73 130 0.0 2.0 0.00 0.00 0.00 20 1012.7
20260503230003 73 133 0.0 2.0 0.00 0.00 0.00 17 1012.6
20260503225403 73 185 0.0 3.0 0.00 0.00 0.00 18 1012.7
20260503224503 74 113 2.0 7.0 0.00 0.00 0.00 16 1012.7
20260503223603 74 143 1.0 4.0 0.00 0.00 0.00 19 1012.8
20260503222703 74 111 1.0 4.0 0.00 0.00 0.00 18 1013.0
20260503222018 73 104 1.0 4.0 0.00 0.00 0.00 18 1012.9
20260503220903 73 153 1.0 3.0 0.00 0.00 0.00 17 1013.1
20260503220003 73 186 2.0 4.0 0.00 0.00 0.00 18 1013.3
20260503215403 73 206 1.0 4.0 0.00 0.00 0.00 19 1013.3
20260503214503 73 130 1.0 3.0 0.00 0.00 0.00 18 1013.3
20260503213603 73 60 1.0 5.0 0.00 0.00 0.00 17 1013.5
20260503212918 74 54 3.0 8.0 0.00 0.00 0.00 17 1013.7
20260503211803 74 88 1.0 3.0 0.00 0.00 0.00 17 1013.8
20260503210903 74 127 1.0 4.0 0.00 0.00 0.00 18 1014.1
20260503210216 74 135 1.0 4.0 0.00 0.00 0.00 18 1014.2
20260503205403 73 125 2.0 11.0 0.00 0.00 0.00 17 1014.4
20260503204503 73 137 3.0 11.0 0.00 0.00 0.00 17 1014.8
20260503203603 73 262 2.0 4.0 0.00 0.00 0.00 18 1015.0
20260503202918 75 254 2.0 4.0 0.00 0.00 0.00 18 1015.1
20260503201803 75 230 2.0 6.0 0.00 0.00 0.00 19 1015.3
20260503200903 74 259 1.0 3.0 0.00 0.00 0.00 22 1015.4
20260503200216 74 145 1.0 3.0 0.00 0.00 0.00 16 1015.6
20260503195616 74 134 2.0 5.0 0.00 0.00 0.00 17 1015.6
20260503194503 74 103 1.0 4.0 0.00 0.00 0.00 20 1015.7
20260503193603 73 308 1.0 3.0 0.00 0.00 0.00 16 1015.8
20260503192918 73 242 1.0 3.0 0.00 0.00 0.00 22 1015.9
20260503191803 72 209 1.0 3.0 0.00 0.00 0.00 18 1016.0
20260503190903 72 253 2.0 5.0 0.00 0.00 0.00 19 1016.2
20260503190003 72 243 1.0 4.0 0.00 0.00 0.00 20 1016.3
20260503185619 71 263 2.0 7.0 0.00 0.00 0.00 19 1016.2
20260503184719 71 105 1.0 4.0 0.00 0.00 0.00 17 1016.4
20260503183603 71 249 2.0 8.0 0.00 0.00 0.00 16 1016.9
20260503182703 72 153 1.0 4.0 0.00 0.00 0.00 16 1017.1
20260503182017 71 186 1.0 5.0 0.00 0.00 0.00 17 1017.2
20260503181116 70 264 2.0 5.0 0.00 0.00 0.00 18 1017.4
20260503180215 71 258 2.0 10.0 0.00 0.00 0.00 19 1017.5
20260503175403 72 238 1.0 6.0 0.00 0.00 0.00 22 1017.5
20260503174503 70 249 2.0 6.0 0.00 0.00 0.00 23 1017.6
20260503173603 69 264 2.0 6.0 0.00 0.00 0.00 24 1017.8
20260503172703 68 266 2.0 7.0 0.00 0.00 0.00 23 1017.9
20260503171803 67 259 1.0 7.0 0.00 0.00 0.00 23 1017.9
20260503171116 67 265 2.0 7.0 0.00 0.00 0.00 23 1017.9
20260503150903 65 288 3.0 9.0 0.00 0.00 0.00 25 1018.8
20260503130903 49 296 1.0 3.0 0.00 0.00 0.00 47 1018.6
20260503090216 43 287 2.0 4.0 0.00 0.00 0.00 53 1018.6